Weather History for Mineral Point, WI

Change the Weather History Date:

Sunday, February 23, 2014

  Actual Average (KLNR) Record (KLNR)
Temperature  
Mean Temperature 16 °F -  
Max Temperature 23 °F 34 °F 50 °F (2002)
Min Temperature 8 °F 19 °F -11 °F (2008)
Degree Days  
Heating Degree Days 50    
Moisture  
Dew Point 3 °F    
Average Humidity 61    
Maximum Humidity 73    
Minimum Humidity 42    
Precipitation  
Precipitation 0.00 in - - ()
Sea Level Pressure  
Sea Level Pressure 30.15 in    
Wind  
Wind Speed 10 mph (West)    
Max Wind Speed 22 mph    
Max Gust Speed 28 mph    
Visibility 10 miles    
Events Snow    
Averages and records for this station are not official NWS values.
T = Trace of Precipitation, MM = Missing Value Source: NWS Daily Summary

Daily Weather History Graph

Daily Weather History Graph

Search for Another Location

Airport:

Trip Planner

Search our weather history database for the weather conditions in past years. The results will help you decide how hot, cold, wet, or windy it might be!

Date:

Astronomy

Feb. 23, 2014 Rise Set
Actual Time 6:46 AM CST 5:42 PM CST
Civil Twilight 6:17 AM CST 6:11 PM CST
Nautical Twilight 5:44 AM CST 6:44 PM CST
Astronomical Twilight 5:12 AM CST 7:17 PM CST
Moon 1:49 AM CST (2/23) 11:40 AM CST (2/23)
Length of Visible Light 11h 53m
Length of Day
10h 56m
Last Quarter, 38% of the Moon is Illuminated
Feb 23
Last Quarter
Mar 1
New
Mar 8
First Quarter
Mar 16
Full
Mar 23
Last Quarter

Hourly Weather History & Observations

Time (CST) Temp. Windchill Dew Point Humidity Pressure Visibility Wind Dir Wind Speed Gust Speed Precip Events Conditions
12:15 AM 12.2 °F 2.9 °F 3.2 °F 67% 30.07 in 10.0 mi WNW 5.8 mph - N/A   Clear
12:35 AM 12.2 °F 2.9 °F 3.2 °F 67% 30.07 in 10.0 mi WNW 5.8 mph - N/A   Clear
12:50 AM 12.2 °F 2.9 °F 3.2 °F 67% 30.07 in 10.0 mi WNW 5.8 mph - N/A   Clear
1:15 AM 12.2 °F 2.9 °F 3.2 °F 67% 30.08 in 10.0 mi WNW 5.8 mph - N/A   Clear
1:35 AM 12.2 °F 0.7 °F 3.2 °F 67% 30.08 in 10.0 mi WNW 8.1 mph - N/A   Clear
1:55 AM 12.2 °F 2.9 °F 3.2 °F 67% 30.08 in 10.0 mi WNW 5.8 mph - N/A   Clear
2:10 AM 12.2 °F 2.9 °F 3.2 °F 67% 30.08 in 10.0 mi WNW 5.8 mph - N/A   Clear
2:35 AM 10.4 °F -1.5 °F 1.4 °F 67% 30.09 in 10.0 mi West 8.1 mph - N/A   Clear
2:55 AM 12.2 °F -0.2 °F 1.4 °F 62% 30.10 in 10.0 mi West 9.2 mph - N/A   Clear
3:15 AM 12.2 °F 1.7 °F 1.4 °F 62% 30.10 in 10.0 mi West 6.9 mph - N/A   Clear
3:35 AM 12.2 °F 1.7 °F 1.4 °F 62% 30.10 in 10.0 mi West 6.9 mph - N/A   Clear
3:55 AM 10.4 °F 2.2 °F 1.4 °F 67% 30.10 in 10.0 mi West 4.6 mph - N/A   Clear
4:15 AM 10.4 °F 0.8 °F 1.4 °F 67% 30.11 in 10.0 mi WNW 5.8 mph - N/A   Clear
4:35 AM 10.4 °F -3.3 °F 1.4 °F 67% 30.12 in 10.0 mi West 10.4 mph - N/A   Clear
4:55 AM 10.4 °F -1.5 °F 1.4 °F 67% 30.12 in 10.0 mi WNW 8.1 mph - N/A   Clear
5:15 AM 10.4 °F -2.4 °F 1.4 °F 67% 30.13 in 10.0 mi West 9.2 mph - N/A   Clear
5:35 AM 10.4 °F -2.4 °F 1.4 °F 67% 30.14 in 10.0 mi WNW 9.2 mph - N/A   Clear
5:55 AM 10.4 °F -1.5 °F 1.4 °F 67% 30.14 in 10.0 mi WNW 8.1 mph - N/A   Clear
6:15 AM 10.4 °F -0.4 °F 1.4 °F 67% 30.15 in 10.0 mi West 6.9 mph - N/A   Clear
6:35 AM 8.6 °F -5.5 °F 1.4 °F 73% 30.15 in 10.0 mi West 10.4 mph - N/A   Clear
6:55 AM 8.6 °F -1.3 °F -0.4 °F 67% 30.14 in 10.0 mi WNW 5.8 mph - N/A   Clear
7:15 AM 8.6 °F -2.6 °F -0.4 °F 67% 30.14 in 10.0 mi WNW 6.9 mph - N/A   Clear
7:35 AM 8.6 °F -2.6 °F -0.4 °F 67% 30.15 in 10.0 mi West 6.9 mph - N/A   Clear
7:55 AM 10.4 °F -2.4 °F -0.4 °F 62% 30.16 in 10.0 mi West 9.2 mph - N/A   Clear
8:15 AM 10.4 °F -2.4 °F 1.4 °F 67% 30.16 in 10.0 mi West 9.2 mph - N/A   Clear
8:35 AM 10.4 °F -3.3 °F 1.4 °F 67% 30.16 in 10.0 mi WNW 10.4 mph - N/A   Clear
8:55 AM 12.2 °F -1.8 °F 1.4 °F 62% 30.17 in 10.0 mi West 11.5 mph - N/A   Clear
9:15 AM 12.2 °F -2.5 °F 1.4 °F 62% 30.17 in 10.0 mi West 12.7 mph - N/A   Clear
9:35 AM 12.2 °F -2.5 °F 1.4 °F 62% 30.17 in 10.0 mi West 12.7 mph - N/A   Clear
9:55 AM 14.0 °F 2.0 °F 3.2 °F 62% 30.17 in 10.0 mi West 9.2 mph - N/A   Clear
10:15 AM 15.8 °F 4.2 °F 3.2 °F 58% 30.17 in 10.0 mi West 9.2 mph - N/A   Clear
10:35 AM 17.6 °F 5.7 °F 3.2 °F 53% 30.17 in 10.0 mi West 10.4 mph - N/A   Clear
10:55 AM 19.4 °F 7.9 °F 3.2 °F 49% 30.17 in 10.0 mi West 10.4 mph - N/A   Clear
11:15 AM 19.4 °F 6.0 °F 3.2 °F 49% 30.19 in 10.0 mi West 13.8 mph - N/A   Clear
11:35 AM 19.4 °F 6.0 °F 3.2 °F 49% 30.18 in 10.0 mi West 13.8 mph - N/A   Clear
11:55 AM 21.2 °F 6.8 °F 1.4 °F 42% 30.18 in 10.0 mi WNW 17.3 mph - N/A   Clear
12:15 PM 21.2 °F 8.9 °F 3.2 °F 46% 30.17 in 10.0 mi West 12.7 mph - N/A   Clear
12:35 PM 21.2 °F 6.8 °F 3.2 °F 46% 30.16 in 10.0 mi West 17.3 mph 20.7 mph N/A   Clear
12:55 PM 21.2 °F 7.8 °F 3.2 °F 46% 30.16 in 10.0 mi West 15.0 mph 23.0 mph N/A   Clear
1:15 PM 23.0 °F 9.6 °F 3.2 °F 43% 30.15 in 10.0 mi West 16.1 mph 20.7 mph N/A   Clear
1:35 PM 23.0 °F 8.3 °F 3.2 °F 43% 30.15 in 10.0 mi West 19.6 mph - N/A   Clear
1:55 PM 23.0 °F 9.2 °F 5.0 °F 46% 30.14 in 10.0 mi West 17.3 mph - N/A   Clear
2:15 PM 23.0 °F 9.6 °F 5.0 °F 46% 30.14 in 10.0 mi West 16.1 mph - N/A   Clear
2:35 PM 23.0 °F 9.2 °F 5.0 °F 46% 30.14 in 10.0 mi West 17.3 mph - N/A   Clear
2:55 PM 23.0 °F 9.6 °F 5.0 °F 46% 30.15 in 10.0 mi West 16.1 mph - N/A   Clear
3:15 PM 21.2 °F 5.2 °F 6.8 °F 54% 30.15 in 10.0 mi West 21.9 mph - N/A   Clear
3:35 PM 21.2 °F 6.0 °F 5.0 °F 50% 30.16 in 10.0 mi West 19.6 mph 27.6 mph N/A   Clear
3:55 PM 21.2 °F 6.4 °F 5.0 °F 50% 30.16 in 10.0 mi West 18.4 mph - N/A   Clear
4:15 PM 19.4 °F 4.5 °F 5.0 °F 54% 30.16 in 10.0 mi West 17.3 mph 24.2 mph N/A   Clear
4:35 PM 19.4 °F 2.8 °F 5.0 °F 54% 30.16 in 10.0 mi West 21.9 mph 25.3 mph N/A   Clear
4:55 PM 17.6 °F 1.3 °F 5.0 °F 58% 30.16 in 10.0 mi West 19.6 mph - N/A   Clear
5:15 PM 17.6 °F 0.9 °F 5.0 °F 58% 30.17 in 10.0 mi West 20.7 mph 27.6 mph N/A Snow Light Snow
5:35 PM 17.6 °F 1.7 °F 5.0 °F 58% 30.17 in 10.0 mi West 18.4 mph - N/A   Clear
5:55 PM 15.8 °F -0.6 °F 5.0 °F 62% 30.17 in 10.0 mi West 18.4 mph 21.9 mph N/A   Clear
6:15 PM 15.8 °F -0.6 °F 5.0 °F 62% 30.17 in 10.0 mi West 18.4 mph - N/A   Clear
6:35 PM 14.0 °F -3.4 °F 3.2 °F 62% 30.18 in 10.0 mi West 19.6 mph - N/A   Clear
6:55 PM 14.0 °F -3.0 °F 3.2 °F 62% 30.18 in 10.0 mi West 18.4 mph - N/A   Clear
7:15 PM 14.0 °F -3.0 °F 3.2 °F 62% 30.19 in 10.0 mi West 18.4 mph 26.5 mph N/A   Clear
7:35 PM 14.0 °F -2.5 °F 3.2 °F 62% 30.19 in 10.0 mi West 17.3 mph - N/A   Clear
7:55 PM 14.0 °F -1.4 °F 3.2 °F 62% 30.19 in 10.0 mi West 15.0 mph - N/A   Clear
8:15 PM 14.0 °F -3.0 °F 3.2 °F 62% 30.19 in 10.0 mi West 18.4 mph - N/A   Clear
8:35 PM 12.2 °F -4.3 °F 3.2 °F 67% 30.19 in 10.0 mi West 16.1 mph - N/A   Clear
8:55 PM 12.2 °F -3.1 °F 3.2 °F 67% 30.19 in 10.0 mi West 13.8 mph 20.7 mph N/A   Clear
9:15 PM 12.2 °F -3.1 °F 5.0 °F 73% 30.19 in 10.0 mi West 13.8 mph - N/A   Clear
9:35 PM 12.2 °F -2.5 °F 5.0 °F 73% 30.20 in 10.0 mi West 12.7 mph - N/A   Clear
9:55 PM 12.2 °F -3.1 °F 5.0 °F 73% 30.19 in 10.0 mi West 13.8 mph - N/A   Clear
10:15 PM 12.2 °F -1.0 °F 5.0 °F 73% 30.19 in 10.0 mi WNW 10.4 mph - N/A   Clear
10:35 PM 12.2 °F -0.2 °F 5.0 °F 73% 30.19 in 10.0 mi WNW 9.2 mph - N/A   Clear
10:55 PM 12.2 °F -1.8 °F 5.0 °F 73% 30.19 in 10.0 mi WNW 11.5 mph 18.4 mph N/A   Clear
11:15 PM 14.0 °F 1.2 °F 5.0 °F 67% 30.19 in 10.0 mi WNW 10.4 mph - N/A   Clear
11:35 PM 14.0 °F 0.5 °F 5.0 °F 67% 30.19 in 10.0 mi WNW 11.5 mph - N/A   Clear
11:55 PM 14.0 °F 0.5 °F 5.0 °F 67% 30.18 in 10.0 mi WNW 11.5 mph - N/A   Clear